OneWeb SL0390

operational
NORAD ID: 50470 Int'l Des: 2021-132 Owner: ONEWEBN Country: UK Constellation: oneweb
LEOCIRCULARPOLARONEWEB_TYPE

About OneWeb SL0390

Description loading...

Live Position

Loading 3D Globe...

Upcoming Passes

Altitude History

Altitude vs Time

uPlot chart will show altitude changes over time

Two-Line Element Set

1 50470U 21132B 26035.99554117 .00000069 00000-0 14429-3 0 9990
2 50470 87.9097 32.1329 0002006 95.0019 265.1342 13.17649856200678
Epoch: Feb 4, 2026 • Age: 11 hours

Current Status

Altitude 1221.1 km
Velocity 7.24 km/s
Sub-Earth Point -68.77°S, 93.9°E
Launch Date Dec 27, 2021
Age 4.1 years
Type internet

Technical Details

Classification Payload
Mass 148.00 kg
Dry Mass 140.00 kg
Total Mass 148.00 kg
Length 1.30 m
Diameter 1.00 m
Span 5.00 m
Shape Trapezoid+2 pan
Manufacturer ONEWUS
Bus Type ARROW
Phase Status In Orbit
Owner/State ONEWEBN/UK

Large Constellations

Loading constellations...